Location: Unspecified
(0.0000°N, 0.0000°E)
Time: 18:06:31
(UTC+01:00)

Ariane H10 - Visible Passes

Search period start: 23 November 2014 00:00
Search period end: 03 December 2014 00:00
Orbit: 419 x 35149 km, 3.9° (Epoch: 23 November)

Date Brightness Start Highest point End Pass type
(mag) Time Alt. Az. Time Alt. Az. Time Alt. Az.
23 Nov 7.8 14:23:41 10° W 16:08:42 87° W 23:53:07 78° SW visible
24 Nov 6.8 10:57:43 10° W 11:07:31 80° N 20:39:27 18° E visible
25 Nov 12.0 19:20:16 10° W 20:23:49 17° W 22:08:41 10° W visible
26 Nov 7.9 15:09:21 10° W 00:35:01 59° WSW 00:35:01 59° WSW visible
27 Nov 7.3 11:40:58 10° W 19:36:00 84° SE 21:21:19 31° E visible
29 Nov 4.2 04:58:52 28° ENE 04:58:52 28° ENE 05:00:08 10° E visible
29 Nov 8.1 15:56:29 10° W 01:16:49 40° W 01:16:49 40° W visible
30 Nov 7.8 12:24:29 10° W 18:15:19 87° S 22:03:05 47° E visible
02 Dec 2.4 05:40:10 38° WNW 05:40:55 54° N 05:43:48 10° ENE visible
02 Dec 10.5 16:46:09 10° W 18:26:43 43° W 00:00:00 10° W visible
